| time (UTC) | temp F | wind direction | speed knots | gust knots | rain 1hr in | rain 24hr in | rain mn in | humidity % | barometer mb |
| 20260503050206 | 46 | 61 | 6.1 | 15.6 | 0.02 | 0.13 | 0.13 | 95 | 1012.6 |
| 20260503045705 | 46 | 79 | 7.0 | 10.4 | 0.02 | 0.13 | 0.13 | 95 | 1012.5 |
| 20260503045206 | 46 | 48 | 6.1 | 10.4 | 0.02 | 0.13 | 0.13 | 95 | 1012.5 |
| 20260503044705 | 46 | 71 | 5.2 | 11.3 | 0.02 | 0.13 | 0.13 | 95 | 1012.6 |
| 20260503043705 | 46 | 59 | 6.1 | 11.3 | 0.02 | 0.13 | 0.12 | 95 | 1012.5 |
| 20260503043205 | 46 | 64 | 6.1 | 13.0 | 0.02 | 0.12 | 0.12 | 95 | 1012.5 |
| 20260503042704 | 46 | 61 | 6.1 | 13.0 | 0.02 | 0.12 | 0.12 | 95 | 1012.5 |
| 20260503042205 | 46 | 45 | 7.0 | 13.0 | 0.02 | 0.12 | 0.12 | 95 | 1012.5 |
| 20260503041706 | 46 | 68 | 7.0 | 11.3 | 0.03 | 0.12 | 0.12 | 95 | 1012.5 |
| 20260503040705 | 46 | 53 | 5.2 | 11.3 | 0.03 | 0.11 | 0.11 | 95 | 1012.5 |
| 20260503040205 | 46 | 80 | 6.1 | 12.2 | 0.03 | 0.11 | 0.11 | 95 | 1012.6 |
| 20260503035705 | 46 | 62 | 7.0 | 12.2 | 0.03 | 0.10 | 0.10 | 95 | 1012.6 |
| 20260503035205 | 46 | 58 | 6.1 | 10.4 | 0.03 | 0.10 | 0.10 | 95 | 1012.6 |
| 20260503034705 | 46 | 80 | 6.1 | 10.4 | 0.04 | 0.10 | 0.10 | 95 | 1012.6 |
| 20260503034206 | 46 | 42 | 5.2 | 12.2 | 0.04 | 0.10 | 0.10 | 95 | 1012.7 |
| 20260503033206 | 46 | 54 | 6.1 | 10.4 | 0.05 | 0.09 | 0.09 | 95 | 1012.7 |
| 20260503032705 | 47 | 68 | 6.1 | 10.4 | 0.05 | 0.09 | 0.09 | 95 | 1012.6 |
| 20260503031704 | 47 | 60 | 6.1 | 11.3 | 0.05 | 0.09 | 0.09 | 95 | 1012.7 |
| 20260503030722 | 47 | 64 | 7.0 | 12.2 | 0.04 | 0.08 | 0.08 | 95 | 1012.6 |
| 20260503025705 | 47 | 28 | 5.2 | 8.7 | 0.04 | 0.07 | 0.07 | 95 | 1012.6 |
| 20260503025234 | 47 | 42 | 4.3 | 8.7 | 0.04 | 0.07 | 0.07 | 94 | 1012.6 |
| 20260503024205 | 47 | 70 | 4.3 | 8.7 | 0.02 | 0.06 | 0.06 | 94 | 1012.7 |
| 20260503023205 | 47 | 42 | 4.3 | 8.7 | 0.02 | 0.05 | 0.05 | 95 | 1012.6 |
| 20260503022205 | 47 | 84 | 5.2 | 9.6 | 0.03 | 0.05 | 0.05 | 95 | 1012.7 |
| 20260503021705 | 47 | 41 | 5.2 | 11.3 | 0.02 | 0.04 | 0.04 | 95 | 1012.7 |
| 20260503021205 | 47 | 52 | 6.1 | 11.3 | 0.02 | 0.04 | 0.04 | 94 | 1012.7 |
| 20260503020705 | 47 | 74 | 5.2 | 11.3 | 0.02 | 0.04 | 0.04 | 94 | 1012.7 |
| 20260503020205 | 47 | 59 | 5.2 | 9.6 | 0.02 | 0.03 | 0.03 | 94 | 1012.7 |
| 20260503015206 | 47 | 73 | 4.3 | 9.6 | 0.02 | 0.03 | 0.03 | 94 | 1012.7 |
| 20260503014705 | 47 | 22 | 4.3 | 10.4 | 0.02 | 0.03 | 0.03 | 94 | 1012.6 |
| 20260503014205 | 47 | 44 | 6.1 | 10.4 | 0.02 | 0.03 | 0.03 | 94 | 1012.7 |
| 20260503013705 | 47 | 38 | 6.1 | 11.3 | 0.02 | 0.03 | 0.03 | 94 | 1012.7 |
| 20260503013205 | 47 | 44 | 6.1 | 12.2 | 0.02 | 0.02 | 0.02 | 94 | 1012.7 |
| 20260503012705 | 47 | 49 | 7.0 | 12.2 | 0.02 | 0.02 | 0.02 | 94 | 1012.7 |
| 20260503011205 | 47 | 63 | 6.1 | 13.0 | 0.02 | 0.02 | 0.02 | 94 | 1012.9 |
| 20260503010707 | 47 | 57 | 7.0 | 13.0 | 0.02 | 0.02 | 0.02 | 94 | 1012.9 |
| 20260503010205 | 47 | 54 | 7.8 | 15.6 | 0.02 | 0.02 | 0.02 | 94 | 1012.9 |
| 20260503005205 | 47 | 61 | 7.0 | 15.6 | 0.01 | 0.01 | 0.01 | 94 | 1012.9 |
| 20260503004705 | 47 | 74 | 6.1 | 12.2 | 0.01 | 0.01 | 0.01 | 94 | 1012.9 |
| 20260503004205 | 47 | 32 | 6.1 | 12.2 | 0.01 | 0.01 | 0.01 | 94 | 1013.0 |
| 20260503003705 | 47 | 37 | 6.1 | 11.3 | 0.01 | 0.01 | 0.01 | 93 | 1012.9 |
| 20260503003204 | 47 | 78 | 5.2 | 10.4 | 0.00 | 0.00 | 0.00 | 93 | 1013.0 |
| 20260503002706 | 47 | 80 | 6.1 | 10.4 | 0.00 | 0.00 | 0.00 | 93 | 1013.0 |
| 20260503002206 | 47 | 53 | 6.1 | 11.3 | 0.00 | 0.00 | 0.00 | 93 | 1013.0 |
| 20260503001705 | 47 | 92 | 6.1 | 11.3 | 0.00 | 0.00 | 0.00 | 93 | 1013.0 |
| 20260503001206 | 47 | 76 | 7.0 | 11.3 | 0.00 | 0.00 | 0.00 | 93 | 1013.0 |
| 20260503000233 | 48 | 70 | 7.0 | 14.8 | 0.00 | 0.00 | 0.00 | 93 | 1013.1 |
| 20260502235705 | 48 | 61 | 7.0 | 14.8 | 0.00 | 0.00 | 0.00 | 93 | 1013.0 |
| 20260502235206 | 48 | 91 | 7.8 | 12.2 | 0.00 | 0.00 | 0.00 | 92 | 1013.1 |
| 20260502234705 | 48 | 69 | 7.8 | 12.2 | 0.00 | 0.00 | 0.00 | 92 | 1013.1 |
| 20260502234205 | 48 | 55 | 7.8 | 12.2 | 0.00 | 0.00 | 0.00 | 92 | 1013.1 |
| 20260502233705 | 48 | 80 | 7.0 | 12.2 | 0.00 | 0.00 | 0.00 | 92 | 1013.2 |
| 20260502232705 | 48 | 64 | 7.8 | 14.8 | 0.00 | 0.00 | 0.00 | 92 | 1013.1 |
| 20260502232206 | 48 | 65 | 8.7 | 14.8 | 0.00 | 0.00 | 0.00 | 92 | 1013.2 |
| 20260502231205 | 48 | 61 | 7.8 | 13.0 | 0.00 | 0.00 | 0.00 | 91 | 1013.2 |
| 20260502230205 | 48 | 101 | 7.0 | 13.9 | 0.00 | 0.00 | 0.00 | 91 | 1013.2 |
| 20260502225704 | 48 | 67 | 7.0 | 13.9 | 0.00 | 0.00 | 0.00 | 91 | 1013.2 |
| 20260502225205 | 48 | 45 | 8.7 | 13.9 | 0.00 | 0.00 | 0.00 | 91 | 1013.1 |
| 20260502224705 | 48 | 72 | 8.7 | 13.9 | 0.00 | 0.00 | 0.00 | 91 | 1013.1 |
| 20260502224205 | 48 | 51 | 7.8 | 13.9 | 0.00 | 0.00 | 0.00 | 91 | 1013.2 |
| 20260502223705 | 48 | 66 | 7.8 | 13.9 | 0.00 | 0.00 | 0.00 | 91 | 1013.1 |
| 20260502222705 | 48 | 81 | 6.1 | 10.4 | 0.00 | 0.00 | 0.00 | 91 | 1013.1 |
| 20260502222205 | 49 | 72 | 6.1 | 11.3 | 0.00 | 0.00 | 0.00 | 91 | 1013.2 |
| 20260502221705 | 49 | 78 | 6.1 | 11.3 | 0.00 | 0.00 | 0.00 | 91 | 1013.1 |
| 20260502221205 | 49 | 53 | 7.0 | 11.3 | 0.00 | 0.00 | 0.00 | 91 | 1013.1 |
| 20260502220205 | 49 | 59 | 6.1 | 13.9 | 0.00 | 0.00 | 0.00 | 90 | 1013.1 |
| 20260502215704 | 49 | 80 | 7.0 | 15.6 | 0.00 | 0.00 | 0.00 | 90 | 1013.2 |
| 20260502215206 | 49 | 65 | 9.6 | 15.6 | 0.00 | 0.00 | 0.00 | 90 | 1013.1 |
| 20260502214705 | 49 | 78 | 9.6 | 15.6 | 0.00 | 0.00 | 0.00 | 90 | 1013.1 |
| 20260502214205 | 49 | 67 | 8.7 | 13.0 | 0.00 | 0.00 | 0.00 | 90 | 1013.2 |
| 20260502213705 | 49 | 69 | 7.8 | 13.0 | 0.00 | 0.00 | 0.00 | 90 | 1013.3 |
| 20260502213205 | 49 | 66 | 7.8 | 13.0 | 0.00 | 0.00 | 0.00 | 90 | 1013.2 |
| 20260502212705 | 49 | 51 | 7.8 | 13.0 | 0.00 | 0.00 | 0.00 | 90 | 1013.2 |
| 20260502212206 | 49 | 78 | 7.8 | 12.2 | 0.00 | 0.00 | 0.00 | 90 | 1013.2 |
| 20260502211705 | 49 | 42 | 7.0 | 14.8 | 0.00 | 0.00 | 0.00 | 89 | 1013.1 |
| 20260502211205 | 49 | 56 | 7.8 | 14.8 | 0.00 | 0.00 | 0.00 | 89 | 1013.2 |
| 20260502210705 | 49 | 40 | 8.7 | 14.8 | 0.00 | 0.00 | 0.00 | 89 | 1013.1 |
| 20260502210205 | 49 | 64 | 7.8 | 13.9 | 0.00 | 0.00 | 0.00 | 89 | 1013.1 |
| 20260502205705 | 49 | 76 | 7.8 | 13.0 | 0.00 | 0.00 | 0.00 | 89 | 1013.2 |
| 20260502204705 | 49 | 44 | 7.0 | 12.2 | 0.00 | 0.00 | 0.00 | 88 | 1013.1 |
| 20260502204205 | 49 | 40 | 7.0 | 12.2 | 0.00 | 0.00 | 0.00 | 88 | 1013.1 |
| 20260502203705 | 49 | 43 | 7.8 | 12.2 | 0.00 | 0.00 | 0.00 | 88 | 1013.1 |
| 20260502202705 | 49 | 80 | 7.8 | 13.9 | 0.00 | 0.00 | 0.00 | 87 | 1012.9 |
| 20260502202205 | 49 | 55 | 7.8 | 13.9 | 0.00 | 0.00 | 0.00 | 87 | 1013.0 |
| 20260502201705 | 50 | 56 | 7.8 | 13.9 | 0.00 | 0.00 | 0.00 | 87 | 1013.1 |
| 20260502201205 | 50 | 67 | 7.8 | 11.3 | 0.00 | 0.00 | 0.00 | 87 | 1013.1 |
| 20260502200705 | 50 | 37 | 7.0 | 10.4 | 0.00 | 0.00 | 0.00 | 86 | 1013.0 |
| 20260502195205 | 50 | 66 | 4.3 | 8.7 | 0.00 | 0.00 | 0.00 | 86 | 1012.9 |
| 20260502194705 | 50 | 59 | 5.2 | 10.4 | 0.00 | 0.00 | 0.00 | 86 | 1012.8 |
| 20260502194205 | 50 | 53 | 5.2 | 10.4 | 0.00 | 0.00 | 0.00 | 86 | 1012.8 |
| 20260502193705 | 50 | 63 | 6.1 | 10.4 | 0.00 | 0.00 | 0.00 | 86 | 1012.8 |
| 20260502193205 | 50 | 43 | 6.1 | 10.4 | 0.00 | 0.00 | 0.00 | 86 | 1012.6 |
| 20260502192705 | 50 | 50 | 7.0 | 11.3 | 0.00 | 0.00 | 0.00 | 86 | 1012.6 |
| 20260502192206 | 50 | 44 | 7.8 | 11.3 | 0.00 | 0.00 | 0.00 | 86 | 1012.6 |
| 20260502191705 | 50 | 46 | 6.1 | 12.2 | 0.00 | 0.01 | 0.00 | 86 | 1012.6 |
| 20260502191205 | 51 | 38 | 6.1 | 12.2 | 0.00 | 0.01 | 0.00 | 86 | 1012.5 |
| 20260502190705 | 51 | 26 | 7.0 | 12.2 | 0.00 | 0.01 | 0.00 | 86 | 1012.5 |
| 20260502190205 | 51 | 36 | 7.8 | 14.8 | 0.00 | 0.01 | 0.00 | 86 | 1012.4 |
| 20260502185705 | 51 | 75 | 7.8 | 14.8 | 0.00 | 0.01 | 0.00 | 86 | 1012.4 |
| 20260502185205 | 51 | 33 | 8.7 | 13.9 | 0.00 | 0.01 | 0.00 | 86 | 1012.3 |
| 20260502184705 | 52 | 42 | 8.7 | 13.0 | 0.00 | 0.01 | 0.00 | 85 | 1012.3 |
| 20260502184205 | 52 | 33 | 7.8 | 12.2 | 0.00 | 0.01 | 0.00 | 85 | 1012.2 |
| 20260502183705 | 53 | 29 | 7.0 | 11.3 | 0.00 | 0.01 | 0.00 | 85 | 1012.1 |
| 20260502183205 | 53 | 11 | 7.0 | 13.9 | 0.00 | 0.01 | 0.00 | 85 | 1012.2 |
| 20260502182705 | 53 | 60 | 7.0 | 13.9 | 0.00 | 0.01 | 0.00 | 85 | 1012.2 |
| 20260502182208 | 53 | 44 | 7.0 | 12.2 | 0.00 | 0.01 | 0.00 | 86 | 1012.2 |
| 20260502181207 | 54 | 48 | 7.8 | 12.2 | 0.00 | 0.01 | 0.00 | 86 | 1012.0 |
| 20260502180705 | 54 | 32 | 6.1 | 13.0 | 0.00 | 0.01 | 0.00 | 85 | 1012.0 |
| 20260502180205 | 54 | 44 | 6.1 | 13.0 | 0.00 | 0.01 | 0.00 | 85 | 1012.1 |
| 20260502170205 | 59 | 271 | 2.6 | 8.7 | 0.00 | 0.06 | 0.00 | 70 | 1011.6 |
| 20260502164205 | 60 | 269 | 4.3 | 9.6 | 0.00 | 0.06 | 0.00 | 69 | 1011.6 |
| 20260502163705 | 60 | 280 | 3.5 | 9.6 | 0.00 | 0.06 | 0.00 | 73 | 1011.6 |
| 20260502162705 | 60 | 234 | 5.2 | 11.3 | 0.00 | 0.06 | 0.00 | 73 | 1011.6 |
| 20260502162205 | 60 | 207 | 5.2 | 13.0 | 0.00 | 0.06 | 0.00 | 74 | 1011.6 |
| 20260502161706 | 60 | 208 | 6.1 | 13.0 | 0.00 | 0.06 | 0.00 | 74 | 1011.6 |
| 20260502161205 | 60 | 246 | 6.1 | 13.0 | 0.00 | 0.06 | 0.00 | 73 | 1011.5 |
| 20260502160705 | 60 | 252 | 6.1 | 11.3 | 0.00 | 0.06 | 0.00 | 72 | 1011.5 |
| 20260502152206 | 61 | 238 | 4.3 | 9.6 | 0.00 | 0.06 | 0.00 | 73 | 1011.5 |
| 20260502151705 | 61 | 246 | 3.5 | 8.7 | 0.00 | 0.06 | 0.00 | 74 | 1011.5 |
| 20260502151205 | 61 | 263 | 4.3 | 10.4 | 0.00 | 0.06 | 0.00 | 73 | 1011.5 |
| 20260502150705 | 61 | 261 | 5.2 | 10.4 | 0.00 | 0.06 | 0.00 | 74 | 1011.6 |
| 20260502150205 | 61 | 279 | 5.2 | 10.4 | 0.00 | 0.06 | 0.00 | 73 | 1011.8 |
| 20260502130705 | 62 | 232 | 6.1 | 13.0 | 0.00 | 0.07 | 0.00 | 74 | 1012.0 |
| 20260502130205 | 62 | 226 | 6.1 | 13.0 | 0.00 | 0.07 | 0.00 | 73 | 1012.1 |
| 20260502123205 | 61 | 209 | 4.3 | 8.7 | 0.00 | 0.07 | 0.00 | 78 | 1012.3 |
| 20260502122732 | 61 | 256 | 4.3 | 9.6 | 0.00 | 0.07 | 0.00 | 78 | 1012.2 |
| 20260502122206 | 61 | 286 | 4.3 | 9.6 | 0.00 | 0.07 | 0.00 | 79 | 1012.2 |
| 20260502121705 | 60 | 236 | 4.3 | 12.2 | 0.00 | 0.07 | 0.00 | 78 | 1012.2 |
| 20260502121205 | 61 | 234 | 5.2 | 12.2 | 0.00 | 0.07 | 0.00 | 76 | 1012.4 |
| 20260502120705 | 61 | 263 | 4.3 | 12.2 | 0.00 | 0.07 | 0.00 | 76 | 1012.4 |
| 20260502120205 | 62 | 247 | 5.2 | 10.4 | 0.00 | 0.07 | 0.00 | 76 | 1012.3 |
| 20260502115705 | 63 | 238 | 5.2 | 10.4 | 0.00 | 0.07 | 0.00 | 74 | 1012.2 |
| 20260502115205 | 63 | 224 | 5.2 | 8.7 | 0.00 | 0.07 | 0.00 | 74 | 1012.3 |
| 20260502114205 | 65 | 265 | 4.3 | 8.7 | 0.00 | 0.07 | 0.00 | 73 | 1012.3 |
| 20260502113205 | 64 | 223 | 3.5 | 8.7 | 0.00 | 0.07 | 0.00 | 76 | 1012.4 |
| 20260502112205 | 62 | 248 | 4.3 | 8.7 | 0.00 | 0.07 | 0.00 | 78 | 1012.5 |
| 20260502111705 | 61 | 236 | 4.3 | 8.7 | 0.00 | 0.07 | 0.00 | 79 | 1012.5 |
| 20260502111205 | 60 | 258 | 3.5 | 8.7 | 0.00 | 0.07 | 0.00 | 81 | 1012.6 |
| 20260502110705 | 59 | 242 | 3.5 | 8.7 | 0.00 | 0.07 | 0.00 | 83 | 1012.6 |
| 20260502105705 | 59 | 273 | 4.3 | 9.6 | 0.00 | 0.07 | 0.00 | 81 | 1012.6 |
| 20260502105205 | 59 | 231 | 4.3 | 10.4 | 0.00 | 0.07 | 0.00 | 81 | 1012.6 |
| 20260502104205 | 58 | 258 | 4.3 | 10.4 | 0.00 | 0.07 | 0.00 | 83 | 1012.7 |
| 20260502103730 | 58 | 257 | 4.3 | 8.7 | 0.00 | 0.07 | 0.00 | 82 | 1012.7 |
| 20260502102704 | 58 | 204 | 4.3 | 9.6 | 0.00 | 0.07 | 0.00 | 82 | 1012.7 |
| 20260502101705 | 58 | 253 | 4.3 | 9.6 | 0.00 | 0.07 | 0.00 | 82 | 1012.7 |
| 20260502101205 | 58 | 273 | 4.3 | 10.4 | 0.00 | 0.07 | 0.00 | 84 | 1012.7 |
| 20260502100705 | 58 | 250 | 5.2 | 10.4 | 0.00 | 0.07 | 0.00 | 84 | 1012.7 |
| 20260502100232 | 57 | 223 | 5.2 | 10.4 | 0.00 | 0.07 | 0.00 | 84 | 1012.7 |
| 20260502091206 | 58 | 249 | 5.2 | 9.6 | 0.00 | 0.07 | 0.00 | 83 | 1012.7 |
| 20260502090705 | 58 | 259 | 5.2 | 9.6 | 0.00 | 0.07 | 0.00 | 83 | 1012.6 |
| 20260502071205 | 52 | 201 | 3.5 | 7.8 | 0.00 | 0.07 | 0.00 | 95 | 1012.7 |
| 20260502070705 | 52 | 223 | 4.3 | 7.8 | 0.00 | 0.07 | 0.00 | 95 | 1012.7 |
| 20260502070205 | 51 | 216 | 3.5 | 7.0 | 0.00 | 0.07 | 0.00 | 95 | 1012.7 |
| 20260502065705 | 51 | 243 | 2.6 | 10.4 | 0.00 | 0.07 | 0.00 | 95 | 1012.7 |
| 20260502065206 | 51 | 217 | 3.5 | 10.4 | 0.00 | 0.07 | 0.00 | 95 | 1012.7 |
| 20260502064205 | 51 | 238 | 3.5 | 7.0 | 0.00 | 0.07 | 0.00 | 95 | 1012.7 |
| 20260502063705 | 50 | 217 | 3.5 | 7.0 | 0.00 | 0.07 | 0.00 | 95 | 1012.7 |
| 20260502063206 | 50 | 217 | 2.6 | 7.0 | 0.00 | 0.07 | 0.00 | 95 | 1012.7 |
| 20260502062705 | 50 | 251 | 3.5 | 7.0 | 0.00 | 0.07 | 0.00 | 95 | 1012.8 |
| 20260502062205 | 50 | 255 | 3.5 | 5.2 | 0.00 | 0.07 | 0.00 | 95 | 1012.8 |
| 20260502061705 | 49 | 240 | 2.6 | 5.2 | 0.00 | 0.07 | 0.00 | 96 | 1012.7 |
| 20260502061205 | 49 | 242 | 2.6 | 3.5 | 0.00 | 0.07 | 0.00 | 95 | 1012.7 |
| 20260502060705 | 48 | 252 | 1.7 | 4.3 | 0.00 | 0.07 | 0.00 | 95 | 1012.7 |
| 20260502060205 | 48 | 257 | 1.7 | 4.3 | 0.00 | 0.07 | 0.00 | 95 | 1012.7 |
| 20260502055705 | 47 | 229 | 1.7 | 4.3 | 0.00 | 0.07 | 0.00 | 95 | 1012.8 |
| 20260502055205 | 47 | 214 | 0.9 | 3.5 | 0.00 | 0.07 | 0.00 | 94 | 1012.7 |
| 20260502054705 | 47 | 271 | 0.9 | 2.6 | 0.00 | 0.07 | 0.00 | 94 | 1012.7 |
| 20260502054206 | 47 | 271 | 0.0 | 2.6 | 0.00 | 0.07 | 0.00 | 94 | 1012.7 |
| 20260502053205 | 47 | 247 | 0.9 | 4.3 | 0.00 | 0.07 | 0.00 | 94 | 1012.7 |
| 20260502052704 | 47 | 258 | 0.9 | 5.2 | 0.00 | 0.07 | 0.00 | 94 | 1012.6 |
| 20260502052231 | 47 | 258 | 1.7 | 6.1 | 0.00 | 0.07 | 0.00 | 94 | 1012.6 |
| 20260502051205 | 47 | 224 | 3.5 | 5.2 | 0.00 | 0.07 | 0.00 | 94 | 1012.6 |
| 20260502050705 | 47 | 211 | 2.6 | 4.3 | 0.00 | 0.07 | 0.00 | 94 | 1012.6 |